F5ZQC-13 Weather Reports


time (UTC)temp
F
wind
direction
speed
knots
gust
knots
rain 1hr
in
rain 24hr
in
rain mn
in
humidity
%
barometer
mb
20260507203857 62 337 0.9 1.7 0.00 0.00 0.00 37 1009.9
20260507203655 62 337 1.7 1.7 0.00 0.00 0.00 37 1010.1
20260507203453 62 337 1.7 1.7 0.00 0.00 0.00 37 1010.0
20260507203251 62 337 0.9 2.6 0.00 0.00 0.00 37 1010.0
20260507202845 62 337 1.7 2.6 0.00 0.00 0.00 37 1010.0
20260507202441 62 337 2.6 2.6 0.00 0.00 0.00 37 1009.9
20260507202239 62 337 1.7 1.7 0.00 0.00 0.00 38 1010.1
20260507202037 62 337 0.9 1.7 0.00 0.00 0.00 38 1010.0
20260507201834 62 337 0.9 1.7 0.00 0.00 0.00 38 1010.0
20260507201430 62 337 0.9 1.7 0.00 0.00 0.00 38 1009.9
20260507201228 63 337 1.7 1.7 0.00 0.00 0.00 36 1009.9
20260507201025 63 337 0.9 0.9 0.00 0.00 0.00 36 1009.9
20260507200823 63 337 0.0 1.7 0.00 0.00 0.00 35 1009.9
20260507200418 63 337 1.7 2.6 0.00 0.00 0.00 36 1010.0
20260507200216 63 337 2.6 2.6 0.00 0.00 0.00 35 1009.9
20260507195811 63 337 0.9 2.6 0.00 0.00 0.00 35 1009.9
20260507195615 63 337 1.7 2.6 0.00 0.00 0.00 35 1009.8
20260507195408 63 337 1.7 1.7 0.00 0.00 0.00 35 1009.9
20260507195205 63 337 1.7 1.7 0.00 0.00 0.00 35 1009.9
20260507195003 63 337 0.9 0.9 0.00 0.00 0.00 35 1009.9
20260507194356 63 337 0.9 1.7 0.00 0.00 0.00 34 1009.8
20260507193951 63 337 1.7 1.7 0.00 0.00 0.00 33 1009.7
20260507193344 64 337 1.7 1.7 0.00 0.00 0.00 33 1009.7
20260507193144 64 337 1.7 1.7 0.00 0.00 0.00 33 1009.7
20260507192940 64 337 0.0 0.9 0.00 0.00 0.00 33 1009.7
20260507192737 64 337 0.9 0.9 0.00 0.00 0.00 33 1009.7
20260507191929 65 337 1.7 2.6 0.00 0.00 0.00 32 1009.7
20260507191524 65 337 2.6 2.6 0.00 0.00 0.00 32 1009.6
20260507191322 65 337 2.6 2.6 0.00 0.00 0.00 32 1009.5
20260507190917 65 337 2.6 3.5 0.00 0.00 0.00 32 1009.5
20260507190512 65 337 1.7 3.5 0.00 0.00 0.00 31 1009.6
20260507190310 65 337 1.7 3.5 0.00 0.00 0.00 31 1009.5
20260507190109 66 337 1.7 3.5 0.00 0.00 0.00 31 1009.6
20260507185501 66 337 3.5 3.5 0.00 0.00 0.00 30 1009.5
20260507185259 66 337 3.5 3.5 0.00 0.00 0.00 30 1009.6
20260507185057 67 337 3.5 3.5 0.00 0.00 0.00 31 1009.6
20260507184855 67 337 3.5 3.5 0.00 0.00 0.00 30 1009.6
20260507184450 67 337 1.7 2.6 0.00 0.00 0.00 30 1009.6
20260507184248 67 337 1.7 2.6 0.00 0.00 0.00 29 1009.6
20260507184046 67 337 1.7 2.6 0.00 0.00 0.00 29 1009.5
20260507183843 68 337 0.9 2.6 0.00 0.00 0.00 30 1009.5
20260507183640 68 337 2.6 2.6 0.00 0.00 0.00 28 1009.5
20260507183236 68 337 1.7 2.6 0.00 0.00 0.00 28 1009.4
20260507183034 68 337 1.7 2.6 0.00 0.00 0.00 29 1009.5
20260507182832 69 337 0.9 2.6 0.00 0.00 0.00 28 1009.4
20260507182629 69 337 2.6 2.6 0.00 0.00 0.00 27 1009.5
20260507182427 69 337 1.7 2.6 0.00 0.00 0.00 27 1009.5
20260507182225 69 337 1.7 2.6 0.00 0.00 0.00 27 1009.5
20260507182023 69 337 2.6 2.6 0.00 0.00 0.00 27 1009.4
20260507181821 69 337 0.9 1.7 0.00 0.00 0.00 27 1009.5
20260507181416 69 337 0.9 1.7 0.00 0.00 0.00 26 1009.4
20260507180809 69 337 0.9 1.7 0.00 0.00 0.00 25 1009.4
20260507180202 70 337 0.0 1.7 0.00 0.00 0.00 23 1009.4
20260507180000 70 337 0.9 2.6 0.00 0.00 0.00 23 1009.4
20260507175758 70 337 1.7 2.6 0.00 0.00 0.00 23 1009.4
20260507175555 70 337 0.9 2.6 0.00 0.00 0.00 22 1009.4
20260507175151 70 292 2.6 2.6 0.00 0.00 0.00 23 1009.4
20260507174140 71 337 3.5 3.5 0.00 0.00 0.00 22 1009.5
20260507173735 71 315 1.7 4.3 0.00 0.00 0.00 22 1009.4
20260507173533 71 315 2.6 4.3 0.00 0.00 0.00 22 1009.5
20260507173408 71 292 2.6 2.6 0.00 0.00 0.00 22 1009.5
20260507173330 71 292 2.6 2.6 0.00 0.00 0.00 22 1009.5
20260507172924 72 326 2.6 6.1 0.00 0.00 0.00 22 1009.5
20260507172721 72 326 3.5 6.1 0.00 0.00 0.00 22 1009.4
20260507172518 72 337 5.2 5.2 0.00 0.00 0.00 21 1009.5
20260507172316 72 337 2.6 4.3 0.00 0.00 0.00 21 1009.4
20260507171709 73 315 4.3 6.1 0.00 0.00 0.00 21 1009.3
20260507171507 74 315 4.3 6.1 0.00 0.00 0.00 21 1009.2
20260507171305 74 315 5.2 6.1 0.00 0.00 0.00 20 1009.2
20260507171102 74 326 4.3 6.1 0.00 0.00 0.00 21 1009.3
20260507170900 74 0 4.3 6.1 0.00 0.00 0.00 20 1009.3
20260507170455 75 315 3.5 4.3 0.00 0.00 0.00 22 1009.3
20260507170253 75 315 3.5 4.3 0.00 0.00 0.00 22 1009.2
20260507170051 75 303 4.3 4.3 0.00 0.00 0.00 22 1009.3
20260507165849 75 303 0.9 4.3 0.00 0.00 0.00 21 1009.3
20260507165647 75 337 2.6 6.1 0.00 0.00 0.00 21 1009.2
20260507165444 75 315 3.5 7.0 0.00 0.00 0.00 21 1009.3
20260507165242 75 315 5.2 7.0 0.00 0.00 0.00 21 1009.3
20260507164838 76 326 6.1 7.0 0.00 0.00 0.00 21 1009.3
20260507164635 75 315 3.5 7.0 0.00 0.00 0.00 22 1009.2
20260507164231 75 337 3.5 6.1 0.00 0.00 0.00 23 1009.2
20260507163826 74 315 2.6 6.1 0.00 0.00 0.00 23 1009.3
20260507163624 74 337 1.7 3.5 0.00 0.00 0.00 23 1009.3
20260507163421 74 337 2.6 6.1 0.00 0.00 0.00 23 1009.2
20260507163219 73 337 3.5 6.1 0.00 0.00 0.00 23 1009.3
20260507162815 73 337 3.5 4.3 0.00 0.00 0.00 24 1009.3
20260507162410 72 337 3.5 6.1 0.00 0.00 0.00 24 1009.1
20260507162208 72 337 1.7 7.0 0.00 0.00 0.00 23 1009.1
20260507162006 72 337 3.5 7.0 0.00 0.00 0.00 23 1009.2
20260507161804 72 315 1.7 8.7 0.00 0.00 0.00 23 1009.1
20260507161157 72 326 4.3 8.7 0.00 0.00 0.00 25 1009.2
20260507160954 72 315 7.0 8.7 0.00 0.00 0.00 24 1009.1
20260507160752 72 315 6.1 6.1 0.00 0.00 0.00 24 1009.2
20260507160146 72 315 6.1 8.7 0.00 0.00 0.00 25 1009.2
20260507155944 72 315 7.0 8.7 0.00 0.00 0.00 24 1009.2
20260507155743 72 292 6.1 6.1 0.00 0.00 0.00 25 1009.2
20260507155337 72 315 5.2 5.2 0.00 0.00 0.00 25 1009.2
20260507154731 72 292 1.7 4.3 0.00 0.00 0.00 25 1009.2
20260507154532 72 303 2.6 4.3 0.00 0.00 0.00 25 1009.2
20260507154125 72 337 1.7 5.2 0.00 0.00 0.00 24 1009.2
20260507153922 72 315 3.5 5.2 0.00 0.00 0.00 25 1009.2
20260507153720 72 292 5.2 5.2 0.00 0.00 0.00 24 1009.3
20260507153314 72 292 3.5 5.2 0.00 0.00 0.00 25 1009.3
20260507153113 72 292 3.5 5.2 0.00 0.00 0.00 25 1009.3
20260507152306 71 337 0.9 7.0 0.00 0.00 0.00 25 1009.3
20260507151657 71 315 3.5 7.8 0.00 0.00 0.00 25 1009.5
20260507151252 72 303 7.0 8.7 0.00 0.00 0.00 23 1009.3
20260507151050 72 315 8.7 8.7 0.00 0.00 0.00 23 1009.3
20260507150646 72 315 7.8 8.7 0.00 0.00 0.00 23 1009.4
20260507150443 72 315 3.5 5.2 0.00 0.00 0.00 23 1009.3
20260507145432 73 315 5.2 8.7 0.00 0.00 0.00 23 1009.4
20260507145229 73 303 8.7 9.6 0.00 0.00 0.00 23 1009.6
20260507144825 72 315 8.7 10.4 0.00 0.00 0.00 25 1009.6
20260507144420 72 315 10.4 10.4 0.00 0.00 0.00 25 1009.5
20260507144344 72 315 7.0 9.6 0.00 0.00 0.00 24 1009.5
20260507144218 72 315 7.0 9.6 0.00 0.00 0.00 24 1009.5
20260507144015 72 292 5.2 7.0 0.00 0.00 0.00 24 1009.4
20260507143813 72 292 7.0 11.3 0.00 0.00 0.00 25 1009.5
20260507143409 72 315 6.1 10.4 0.00 0.00 0.00 24 1009.6
20260507143303 72 303 7.0 9.6 0.00 0.00 0.00 23 1009.5
20260507143206 72 303 7.0 9.6 0.00 0.00 0.00 23 1009.5
20260507143004 72 315 8.7 10.4 0.00 0.00 0.00 25 1009.5
20260507142802 72 315 7.8 11.3 0.00 0.00 0.00 24 1009.6
20260507142358 73 292 11.3 11.3 0.00 0.00 0.00 24 1009.6
20260507141954 73 315 7.8 10.4 0.00 0.00 0.00 24 1009.7
20260507141751 73 315 5.2 10.4 0.00 0.00 0.00 23 1009.7
20260507141549 73 315 6.1 10.4 0.00 0.00 0.00 23 1009.8
20260507141143 74 315 7.8 11.3 0.00 0.00 0.00 23 1009.8
20260507140941 74 315 6.1 11.3 0.00 0.00 0.00 23 1009.8
20260507140739 74 292 8.7 12.2 0.00 0.00 0.00 23 1009.8
20260507135725 74 292 6.1 8.7 0.00 0.00 0.00 25 1009.7
20260507135320 74 315 7.8 11.3 0.00 0.00 0.00 24 1009.8
20260507134714 74 292 10.4 11.3 0.00 0.00 0.00 25 1009.8
20260507133703 74 315 5.2 7.8 0.00 0.00 0.00 26 1009.9
20260507133500 74 315 7.8 8.7 0.00 0.00 0.00 26 1009.8
20260507132651 73 292 7.8 8.7 0.00 0.00 0.00 27 1009.9
20260507132449 73 270 6.1 8.7 0.00 0.00 0.00 27 1009.9
20260507132247 73 337 7.8 9.6 0.00 0.00 0.00 27 1010.1
20260507132118 73 315 8.7 10.4 0.00 0.00 0.00 26 1010.1
20260507132044 73 315 8.7 10.4 0.00 0.00 0.00 26 1010.1
20260507131842 73 270 8.7 10.4 0.00 0.00 0.00 27 1009.9
20260507131314 73 315 7.0 9.6 0.00 0.00 0.00 26 1010.2
20260507131235 73 315 7.0 9.6 0.00 0.00 0.00 26 1010.2
20260507131032 73 315 6.1 8.7 0.00 0.00 0.00 27 1010.1
20260507130628 73 292 1.7 8.7 0.00 0.00 0.00 27 1010.2
20260507130426 73 315 7.8 8.7 0.00 0.00 0.00 27 1010.2
20260507125819 73 292 2.6 8.7 0.00 0.00 0.00 29 1010.2
20260507125415 72 315 5.2 8.7 0.00 0.00 0.00 28 1010.1
20260507125212 72 315 6.1 8.7 0.00 0.00 0.00 28 1010.1
20260507125011 72 292 6.1 6.1 0.00 0.00 0.00 29 1010.2
20260507124808 72 270 3.5 7.8 0.00 0.00 0.00 29 1010.2
20260507124404 72 315 6.1 8.7 0.00 0.00 0.00 28 1010.2
20260507123028 72 315 10.4 10.4 0.00 0.00 0.00 28 1010.2
20260507122421 72 270 4.3 10.4 0.00 0.00 0.00 28 1010.3
20260507122219 72 315 7.8 11.3 0.00 0.00 0.00 28 1010.3
20260507121613 72 315 8.7 8.7 0.00 0.00 0.00 29 1010.3
20260507121409 72 315 6.1 7.0 0.00 0.00 0.00 29 1010.3
20260507121207 72 315 3.5 8.7 0.00 0.00 0.00 29 1010.4
20260507120359 72 315 2.6 9.6 0.00 0.00 0.00 29 1010.6
20260507115751 71 315 7.0 7.8 0.00 0.00 0.00 29 1010.8
20260507115347 71 315 7.8 9.6 0.00 0.00 0.00 29 1010.7
20260507115147 71 315 7.8 7.8 0.00 0.00 0.00 31 1010.7
20260507115144 71 315 7.8 7.8 0.00 0.00 0.00 31 1010.7
20260507114739 71 315 3.5 7.0 0.00 0.00 0.00 31 1010.8
20260507114537 71 45 3.5 7.0 0.00 0.00 0.00 30 1010.8
20260507113930 71 270 7.0 7.0 0.00 0.00 0.00 31 1010.8
20260507113526 70 292 7.0 8.7 0.00 0.00 0.00 31 1010.8
20260507113328 70 315 5.2 8.7 0.00 0.00 0.00 31 1010.8
20260507113122 70 315 5.2 9.6 0.00 0.00 0.00 31 1010.9
20260507112919 70 292 4.3 9.6 0.00 0.00 0.00 31 1010.9
20260507112717 70 315 7.8 9.6 0.00 0.00 0.00 31 1011.0
20260507112313 70 315 8.7 8.7 0.00 0.00 0.00 32 1010.9
20260507111705 70 270 5.2 8.7 0.00 0.00 0.00 31 1011.0
20260507111301 70 315 5.2 9.6 0.00 0.00 0.00 31 1011.1
20260507110654 69 315 7.0 10.4 0.00 0.00 0.00 32 1011.2
20260507110250 69 315 7.8 7.8 0.00 0.00 0.00 32 1011.2
20260507105850 69 315 2.6 6.1 0.00 0.00 0.00 33 1011.2
20260507105643 69 270 5.2 6.1 0.00 0.00 0.00 32 1011.3
20260507105239 69 315 3.5 7.8 0.00 0.00 0.00 32 1011.3
20260507105037 69 315 4.3 7.8 0.00 0.00 0.00 32 1011.4
20260507104429 69 315 4.3 7.8 0.00 0.00 0.00 31 1011.4
20260507104108 69 315 5.2 7.8 0.00 0.00 0.00 30 1011.4
20260507104025 69 315 5.2 7.8 0.00 0.00 0.00 30 1011.4
20260507103826 69 292 7.8 7.8 0.00 0.00 0.00 32 1011.3
20260507103418 69 315 2.6 8.7 0.00 0.00 0.00 32 1011.2
20260507102811 68 270 5.2 9.6 0.00 0.00 0.00 31 1011.2
20260507102413 68 292 6.1 7.0 0.00 0.00 0.00 32 1011.3
20260507102205 68 270 6.1 7.0 0.00 0.00 0.00 32 1011.4
20260507102002 68 292 5.2 8.7 0.00 0.00 0.00 32 1011.3
20260507101759 68 270 4.3 8.7 0.00 0.00 0.00 31 1011.3
20260507101558 68 292 5.2 7.8 0.00 0.00 0.00 32 1011.4
20260507101355 68 270 5.2 7.8 0.00 0.00 0.00 32 1011.5
20260507101153 68 270 4.3 6.1 0.00 0.00 0.00 32 1011.3
20260507100344 68 292 5.2 8.7 0.00 0.00 0.00 31 1011.4
20260507095535 69 270 5.2 9.6 0.00 0.00 0.00 31 1011.4
20260507095334 69 315 7.8 9.6 0.00 0.00 0.00 31 1011.4
20260507094928 69 315 5.2 7.8 0.00 0.00 0.00 32 1011.4
20260507094523 69 315 7.0 7.8 0.00 0.00 0.00 31 1011.4
20260507094321 69 292 7.8 8.7 0.00 0.00 0.00 31 1011.5
20260507093717 69 315 5.2 7.8 0.00 0.00 0.00 31 1011.5
20260507093512 69 315 6.1 7.8 0.00 0.00 0.00 31 1011.5
20260507092702 70 292 7.8 7.8 0.00 0.00 0.00 31 1011.5
20260507092258 69 270 4.3 7.8 0.00 0.00 0.00 32 1011.4
20260507092059 70 270 6.1 7.8 0.00 0.00 0.00 32 1011.3
20260507091854 70 303 6.1 7.0 0.00 0.00 0.00 32 1011.4
20260507091652 70 315 3.5 7.0 0.00 0.00 0.00 32 1011.4
20260507091449 70 315 3.5 7.0 0.00 0.00 0.00 32 1011.3
20260507091247 70 292 5.2 5.2 0.00 0.00 0.00 33 1011.4
20260507091048 69 270 4.3 7.8 0.00 0.00 0.00 32 1011.4
20260507090640 69 315 5.2 7.0 0.00 0.00 0.00 32 1011.3
20260507090236 69 303 1.7 6.1 0.00 0.00 0.00 32 1011.3
20260507085831 69 315 5.2 6.1 0.00 0.00 0.00 33 1011.4
20260507085629 69 292 4.3 6.1 0.00 0.00 0.00 33 1011.4
20260507084820 68 315 3.5 6.1 0.00 0.00 0.00 34 1011.4
20260507084622 68 315 3.5 6.1 0.00 0.00 0.00 34 1011.4
20260507084415 68 326 3.5 6.1 0.00 0.00 0.00 34 1011.5
20260507084317 68 0 1.7 6.1 0.00 0.00 0.00 34 1011.4
20260507084214 68 0 1.7 6.1 0.00 0.00 0.00 34 1011.4
20260507083808 67 0 1.7 5.2 0.00 0.00 0.00 34 1011.5
20260507083606 67 0 3.5 5.2 0.00 0.00 0.00 35 1011.5
20260507083408 67 337 1.7 7.8 0.00 0.00 0.00 35 1011.5
20260507082828 66 0 0.0 4.3 0.00 0.00 0.00 35 1011.5
20260507082624 66 337 4.3 4.3 0.00 0.00 0.00 35 1011.4
20260507082422 66 326 3.5 6.1 0.00 0.00 0.00 35 1011.5
20260507082220 66 315 2.6 6.1 0.00 0.00 0.00 35 1011.5
20260507082018 66 337 1.7 3.5 0.00 0.00 0.00 36 1011.4
20260507081211 66 315 4.3 6.1 0.00 0.00 0.00 35 1011.5
20260507075433 67 337 3.5 3.5 0.00 0.00 0.00 33 1011.4
20260507075348 67 337 3.5 3.5 0.00 0.00 0.00 33 1011.4
20260507075146 68 0 2.6 5.2 0.00 0.00 0.00 33 1011.5
20260507074742 68 326 3.5 6.1 0.00 0.00 0.00 33 1011.4
20260507074337 69 337 5.2 5.2 0.00 0.00 0.00 32 1011.4
20260507073930 70 315 2.6 4.3 0.00 0.00 0.00 35 1011.5
20260507073729 70 315 3.5 5.2 0.00 0.00 0.00 35 1011.5
20260507073525 69 270 3.5 5.2 0.00 0.00 0.00 35 1011.4
20260507073323 69 292 3.5 4.3 0.00 0.00 0.00 35 1011.3
20260507072904 69 270 5.2 5.2 0.00 0.00 0.00 34 1011.4
20260507072716 69 270 5.2 5.2 0.00 0.00 0.00 34 1011.4
20260507072513 69 292 1.7 5.2 0.00 0.00 0.00 34 1011.3
20260507072311 69 315 2.6 5.2 0.00 0.00 0.00 34 1011.3
20260507065624 68 315 2.6 4.3 0.00 0.00 0.00 40 1011.4
20260507065421 68 303 3.5 4.3 0.00 0.00 0.00 41 1011.4
20260507065219 67 315 3.5 110.4 0.00 0.00 0.00 41 1011.4
20260507065017 67 315 3.5 110.4 0.00 0.00 0.00 42 1011.3
20260507064512 66 315 2.6 109.5 0.00 0.00 0.00 43 1011.3
20260507064310 66 315 1.7 109.5 0.00 0.00 0.00 42 1011.3
20260507063720 65 247 0.0 107.8 0.00 0.00 0.00 45 1011.4
20260507063518 64 45 0.0 107.8 0.00 0.00 0.00 45 1011.1
20260507063319 64 303 0.9 0.9 0.00 0.00 0.00 46 1011.4
20260507063117 63 337 0.9 0.9 0.00 0.00 0.00 46 1011.1
20260507062713 63 337 0.0 0.9 0.00 0.00 0.00 46 1011.2
20260507062510 62 337 0.0 0.0 0.00 0.00 0.00 49 1011.4
20260507062309 62 337 0.9 1.7 0.00 0.00 0.00 47 1011.4
20260507061323 60 0 0.9 0.9 0.00 0.00 0.00 50 1011.2
20260507060716 59 315 0.0 108.6 0.00 0.00 0.00 49 1011.1
20260507060613 58 315 108.6 108.6 0.00 0.00 0.00 50 1011.1
20260507060219 58 315 0.9 1.7 0.00 0.00 0.00 51 1011.4
20260507060017 57 292 0.9 1.7 0.00 0.00 0.00 51 1011.3
20260507055337 56 292 0.9 1.7 0.00 0.00 0.00 53 1011.3
20260507055136 55 315 1.7 1.7 0.00 0.00 0.00 53 1011.4
20260507054933 55 292 0.0 0.9 0.00 0.00 0.00 53 1011.2
20260507054326 54 337 0.0 0.0 0.00 0.00 0.00 53 1011.3
20260507053921 53 337 0.0 0.0 0.00 0.00 0.00 54 1011.3
20260507053728 53 225 0.0 0.9 0.00 0.00 0.00 54 1011.2
20260507053719 53 33 0.0 0.9 0.00 0.00 0.00 53 1011.4
20260507053517 53 225 0.0 0.9 0.00 0.00 0.00 54 1011.2
20260507053314 52 45 0.9 1.7 0.00 0.00 0.00 54 1011.3
20260507052910 52 0 0.9 1.7 0.00 0.00 0.00 54 1011.4
20260507052707 52 0 1.7 1.7 0.00 0.00 0.00 54 1011.2
20260507052505 51 292 0.9 1.7 0.00 0.00 0.00 55 1011.3
20260507052306 51 0 0.9 1.7 0.00 0.00 0.00 54 1011.2
20260507051859 51 315 0.9 1.7 0.00 0.00 0.00 55 1010.6
20260507051252 51 337 1.7 1.7 0.00 0.00 0.00 55 1011.0
20260507051050 50 0 1.7 1.7 0.00 0.00 0.00 55 1011.1
20260507050333 50 315 2.6 2.6 0.00 0.00 0.00 56 1011.1
20260507050240 50 315 2.6 2.6 0.00 0.00 0.00 56 1011.1
20260507045911 50 348 1.7 1.7 0.00 0.00 0.00 55 1010.9
20260507045836 50 348 1.7 1.7 0.00 0.00 0.00 55 1010.9
20260507045716 50 348 2.6 3.5 0.00 0.00 0.00 55 1010.9
20260507045312 50 337 2.6 2.6 0.00 0.00 0.00 56 1011.0
20260507044756 51 292 1.7 2.6 0.00 0.00 0.00 55 1011.1
20260507044150 51 337 2.6 2.6 0.00 0.00 0.00 55 1011.1
20260507043745 51 292 2.6 2.6 0.00 0.00 0.00 54 1010.9
20260507042733 51 337 1.7 1.7 0.00 0.00 0.00 54 1010.8
20260507042328 51 292 1.7 2.6 0.00 0.00 0.00 59 1010.9
20260507041926 51 281 1.7 1.7 0.00 0.00 0.00 55 1011.0
20260507041722 51 281 0.9 1.7 0.00 0.00 0.00 55 1011.0
20260507041318 51 292 0.9 0.9 0.00 0.00 0.00 55 1011.0
20260507040914 51 292 0.0 0.9 0.00 0.00 0.00 55 1010.9
20260507040712 51 292 0.0 0.9 0.00 0.00 0.00 56 1011.0
20260507035900 51 337 0.9 1.7 0.00 0.00 0.00 55 1010.9
20260507035454 51 337 1.7 1.7 0.00 0.00 0.00 55 1011.0
20260507034521 52 348 0.9 1.7 0.00 0.00 0.00 56 1011.1
20260507034443 52 348 0.9 1.7 0.00 0.00 0.00 56 1011.1
20260507033633 52 337 0.0 0.0 0.00 0.00 0.00 54 1011.1
20260507033229 52 270 0.0 0.0 0.00 0.00 0.00 54 1011.1
20260507032825 52 270 0.0 0.9 0.00 0.00 0.00 53 1011.2
20260507032622 52 270 0.9 0.9 0.00 0.00 0.00 54 1011.2
20260507032421 52 270 0.9 0.9 0.00 0.00 0.00 54 1010.9
20260507032218 52 270 0.9 0.9 0.00 0.00 0.00 53 1011.2
20260507032025 52 292 0.9 1.7 0.00 0.00 0.00 54 1011.2
20260507032023 52 270 0.9 0.9 0.00 0.00 0.00 54 1011.0
20260507031813 52 292 0.9 1.7 0.00 0.00 0.00 54 1011.2
20260507031610 52 270 0.0 1.7 0.00 0.00 0.00 54 1011.2
20260507031409 52 270 0.9 1.7 0.00 0.00 0.00 53 1011.2
20260507031004 52 270 1.7 1.7 0.00 0.00 0.00 53 1011.2
20260507030803 52 270 0.0 0.9 0.00 0.00 0.00 53 1011.1
20260507030602 52 270 0.9 0.9 0.00 0.00 0.00 53 1011.2
20260507030158 52 270 0.9 1.7 0.00 0.00 0.00 53 1011.2
20260507025953 52 270 0.9 2.6 0.00 0.00 0.00 53 1011.1
20260507025753 52 270 1.7 2.6 0.00 0.00 0.00 53 1011.2
20260507025144 52 270 0.9 0.9 0.00 0.00 0.00 54 1011.5
20260507024739 52 270 0.9 0.9 0.00 0.00 0.00 53 1011.3
20260507024335 52 270 0.9 1.7 0.00 0.00 0.00 54 1011.1
20260507024135 52 270 0.0 2.6 0.00 0.00 0.00 52 1011.5
20260507023728 52 270 1.7 3.5 0.00 0.00 0.00 53 1010.9
20260507023323 52 315 2.6 2.6 0.00 0.00 0.00 52 1011.3
20260507022919 52 315 2.6 2.6 0.00 0.00 0.00 52 1011.1
20260507022719 52 315 2.6 2.6 0.00 0.00 0.00 52 1011.2
20260507022312 53 315 0.9 1.7 0.00 0.00 0.00 52 1011.3
20260507021508 53 292 1.7 1.7 0.00 0.00 0.00 53 1011.4
20260507021300 53 292 1.7 1.7 0.00 0.00 0.00 53 1011.1
20260507020856 53 281 1.7 1.7 0.00 0.00 0.00 52 1011.1
20260507020654 53 315 1.7 2.6 0.00 0.00 0.00 53 1011.3
20260507020249 53 292 1.7 2.6 0.00 0.00 0.00 53 1011.3
20260507015845 53 315 2.6 4.3 0.00 0.00 0.00 53 1011.4
20260507015643 53 292 2.6 4.3 0.00 0.00 0.00 53 1011.3
20260507015444 53 315 2.6 3.5 0.00 0.00 0.00 54 1011.3
20260507015242 53 292 2.6 3.5 0.00 0.00 0.00 53 1011.4
20260507015036 53 326 2.6 3.5 0.00 0.00 0.00 53 1011.4
20260507014834 53 281 1.7 2.6 0.00 0.00 0.00 53 1011.5
20260507014637 53 292 2.6 3.5 0.00 0.00 0.00 52 1011.5
20260507014226 53 326 2.6 4.3 0.00 0.00 0.00 52 1011.3
20260507013822 53 281 3.5 4.3 0.00 0.00 0.00 53 1011.5
20260507013621 53 303 2.6 3.5 0.00 0.00 0.00 52 1011.2
20260507013417 53 326 1.7 3.5 0.00 0.00 0.00 52 1011.5
20260507013216 53 315 2.6 3.5 0.00 0.00 0.00 53 1011.5
20260507012811 53 315 1.7 2.6 0.00 0.00 0.00 53 1011.5
20260507012609 53 303 1.7 2.6 0.00 0.00 0.00 52 1011.5
20260507012406 53 303 0.9 2.6 0.00 0.00 0.00 53 1011.5
20260507011800 54 303 1.7 3.5 0.00 0.00 0.00 52 1011.6
20260507010749 54 315 2.6 3.5 0.00 0.00 0.00 52 1011.5
20260507010146 54 315 2.6 3.5 0.00 0.00 0.00 52 1011.5
20260507005737 54 315 2.6 3.5 0.00 0.00 0.00 52 1011.6
20260507005336 54 315 2.6 3.5 0.00 0.00 0.00 53 1011.6
20260507005008 54 303 0.9 3.5 0.00 0.00 0.00 52 1011.7
20260507004928 54 303 0.9 3.5 0.00 0.00 0.00 52 1011.7
20260507004523 54 315 3.5 3.5 0.00 0.00 0.00 52 1011.7
20260507004322 54 315 2.6 3.5 0.00 0.00 0.00 52 1011.9
20260507003714 54 303 1.7 3.5 0.00 0.00 0.00 52 1012.0
20260507003309 54 315 3.5 3.5 0.00 0.00 0.00 52 1011.7
20260507001651 55 315 1.7 2.6 0.00 0.00 0.00 51 1012.1
20260507001247 55 292 1.7 3.5 0.00 0.00 0.00 51 1012.1
20260507001048 55 315 3.5 3.5 0.00 0.00 0.00 51 1011.9
20260507000844 55 315 2.6 2.6 0.00 0.00 0.00 52 1012.2
20260507000641 55 315 2.6 2.6 0.00 0.00 0.00 52 1012.0
20260507000400 55 315 0.9 2.6 0.00 0.00 0.02 53 1012.1
20260506235754 55 315 1.7 3.5 0.00 0.00 0.02 52 1012.1
20260506235350 55 315 1.7 3.5 0.00 0.00 0.02 51 1012.2
20260506235147 55 303 2.6 3.5 0.00 0.00 0.02 51 1012.2
20260506234739 55 292 1.7 3.5 0.00 0.00 0.02 51 1012.1
20260506234609 55 315 3.5 3.5 0.00 0.00 0.02 50 1012.1
20260506234538 55 315 3.5 3.5 0.00 0.00 0.02 50 1012.1
20260506234132 55 270 2.6 4.3 0.00 0.00 0.02 52 1012.1
20260506234002 55 315 3.5 4.3 0.00 0.00 0.02 51 1012.1
20260506233931 55 315 3.5 4.3 0.00 0.00 0.02 51 1012.1
20260506233728 55 270 0.9 5.2 0.00 0.00 0.02 50 1012.1
20260506233323 55 270 3.5 4.3 0.00 0.00 0.02 51 1012.1
20260506233123 55 292 0.9 4.3 0.00 0.00 0.02 51 1012.2
20260506232717 55 315 2.6 4.3 0.00 0.00 0.02 51 1012.2
20260506232312 55 315 2.6 4.3 0.00 0.00 0.02 51 1012.2
20260506231908 55 315 1.7 4.3 0.00 0.00 0.02 51 1011.9
20260506231705 55 292 2.6 4.3 0.00 0.00 0.02 51 1012.2
20260506230856 56 315 3.5 5.2 0.00 0.00 0.02 50 1012.3
20260506230654 56 315 4.3 5.2 0.00 0.00 0.02 50 1012.3
20260506230452 56 326 2.6 7.0 0.00 0.00 0.02 50 1012.2
20260506230251 56 292 6.1 7.8 0.00 0.00 0.02 50 1012.2
20260506225643 56 326 5.2 7.8 0.00 0.00 0.02 50 1012.2
20260506225441 56 292 7.0 7.0 0.00 0.00 0.02 50 1012.2
20260506225237 56 292 4.3 7.0 0.00 0.00 0.02 50 1012.2
20260506224429 56 337 4.3 5.2 0.00 0.00 0.02 51 1012.3
20260506224226 56 281 0.9 2.6 0.00 0.00 0.02 50 1012.3
20260506224024 56 315 0.9 3.5 0.00 0.00 0.02 50 1012.1
20260506223826 56 337 1.7 3.5 0.00 0.00 0.02 50 1012.2
20260506223620 56 0 2.6 2.6 0.00 0.00 0.02 50 1012.3
20260506223215 56 337 0.9 1.7 0.00 0.00 0.02 51 1012.4
20260506223016 56 303 0.9 2.6 0.00 0.00 0.02 52 1012.3
20260506222811 56 270 0.0 3.5 0.00 0.00 0.02 50 1012.3
20260506222609 56 315 1.7 3.5 0.00 0.00 0.02 50 1012.3
20260506222406 56 315 2.6 2.6 0.00 0.00 0.02 50 1012.3
20260506221839 56 270 6.1 6.1 0.00 0.00 0.02 50 1012.3
20260506221759 56 270 6.1 6.1 0.00 0.00 0.02 50 1012.3
20260506221244 56 292 0.0 4.3 0.00 0.00 0.02 50 1012.3
20260506221154 56 292 0.0 4.3 0.00 0.00 0.02 50 1012.3
20260506220950 56 292 2.6 4.3 0.00 0.00 0.02 50 1012.3
20260506220344 56 315 1.7 3.5 0.00 0.00 0.02 49 1012.2
20260506215738 56 0 1.7 6.1 0.00 0.00 0.02 48 1012.2
20260506215131 56 337 0.0 2.6 0.00 0.00 0.02 49 1012.2
20260506214523 56 303 0.0 1.7 0.00 0.00 0.02 48 1012.2
20260506214321 56 292 0.9 2.6 0.00 0.00 0.02 48 1012.2
20260506214118 56 303 1.7 5.2 0.00 0.00 0.02 49 1012.2
20260506213916 56 270 0.9 5.2 0.00 0.00 0.02 48 1012.1
20260506213714 56 315 0.9 2.6 0.00 0.00 0.02 48 1012.3
20260506213317 56 292 0.0 0.9 0.00 0.00 0.02 49 1012.2
20260506211449 56 270 0.9 2.6 0.00 0.00 0.02 48 1012.1
20260506211247 56 292 0.9 2.6 0.00 0.00 0.02 48 1012.2
20260506211044 56 292 1.7 2.6 0.00 0.00 0.02 48 1012.3
20260506210236 56 326 0.9 2.6 0.00 0.00 0.02 48 1012.2
20260506210033 56 315 0.0 0.9 0.00 0.00 0.02 48 1012.2
20260506205831 56 0 0.0 2.6 0.00 0.00 0.02 47 1012.2
20260506205021 56 292 0.9 3.5 0.00 0.00 0.02 46 1012.0
20260506204856 56 303 1.7 3.5 0.00 0.00 0.02 46 1012.2
20260506204819 56 303 1.7 3.5 0.00 0.00 0.02 46 1012.2
20260506204617 56 270 1.7 3.5 0.00 0.00 0.02 45 1012.0
20260506204214 56 315 0.9 4.3 0.00 0.00 0.02 45 1012.1